TimeEDT,TemperatureF,Dew PointF,Humidity,Sea Level PressureIn,VisibilityMPH,Wind Direction,Wind SpeedMPH,Gust SpeedMPH,PrecipitationIn,Events,Conditions,WindDirDegrees,DateUTC
12:53 AM,77.0,71.1,82,29.99,10.0,NNE,8.1,-,N/A,,Mostly Cloudy,20,2011-10-24 04:53:00
1:53 AM,75.9,69.1,79,29.99,10.0,NE,9.2,-,N/A,,Mostly Cloudy,40,2011-10-24 05:53:00
2:08 AM,75.2,68.0,78,29.99,10.0,NNE,9.2,-,N/A,,Scattered Clouds,30,2011-10-24 06:08:00
2:53 AM,75.0,69.1,82,29.98,10.0,North,6.9,-,N/A,,Clear,10,2011-10-24 06:53:00
3:53 AM,75.0,68.0,79,29.97,10.0,NNE,9.2,-,N/A,,Clear,20,2011-10-24 07:53:00
4:53 AM,73.9,68.0,82,29.96,10.0,North,11.5,-,N/A,,Clear,10,2011-10-24 08:53:00
5:53 AM,75.0,66.0,73,29.96,10.0,North,10.4,-,N/A,,Clear,10,2011-10-24 09:53:00
6:53 AM,75.0,64.9,71,29.98,10.0,North,9.2,-,N/A,,Clear,10,2011-10-24 10:53:00
7:53 AM,73.9,66.9,79,30.01,10.0,North,10.4,16.1,N/A,,Clear,10,2011-10-24 11:53:00
8:53 AM,75.0,66.9,76,30.04,10.0,North,11.5,-,N/A,,Overcast,10,2011-10-24 12:53:00
9:53 AM,75.9,68.0,76,30.06,10.0,North,10.4,-,N/A,,Overcast,10,2011-10-24 13:53:00
10:53 AM,75.2,66.2,73,30.07,10.0,North,11.5,-,N/A,,Overcast,360,2011-10-24 14:53:00
11:53 AM,78.1,64.9,64,30.05,10.0,North,15.0,24.2,N/A,,Scattered Clouds,360,2011-10-24 15:53:00
12:53 PM,79.0,64.9,62,30.04,10.0,North,15.0,23.0,N/A,,Clear,360,2011-10-24 16:53:00
1:53 PM,79.0,64.0,60,30.03,10.0,North,13.8,21.9,N/A,,Mostly Cloudy,360,2011-10-24 17:53:00
2:53 PM,79.0,64.9,62,30.01,10.0,North,13.8,20.7,N/A,,Scattered Clouds,350,2011-10-24 18:53:00
3:53 PM,78.1,64.9,64,30.01,10.0,North,13.8,-,N/A,,Clear,360,2011-10-24 19:53:00
4:53 PM,78.1,64.9,64,30.00,10.0,North,11.5,21.9,N/A,,Clear,350,2011-10-24 20:53:00
5:53 PM,77.0,63.0,62,30.00,10.0,North,13.8,-,N/A,,Clear,350,2011-10-24 21:53:00
6:53 PM,75.9,64.0,67,30.01,10.0,North,11.5,18.4,N/A,,Clear,350,2011-10-24 22:53:00
7:53 PM,75.9,64.9,69,30.03,10.0,North,9.2,-,N/A,,Clear,350,2011-10-24 23:53:00
8:53 PM,75.9,66.0,71,30.05,10.0,North,10.4,-,N/A,,Clear,350,2011-10-25 00:53:00
9:53 PM,75.2,66.2,73,30.06,10.0,North,11.5,-,N/A,,Partly Cloudy,10,2011-10-25 01:53:00
10:53 PM,75.9,66.9,74,30.06,10.0,NNE,13.8,19.6,N/A,,Partly Cloudy,20,2011-10-25 02:53:00
11:53 PM,75.2,62.6,65,30.06,10.0,NNE,12.7,-,N/A,,Clear,30,2011-10-25 03:53:00